<?xml version="1.0" encoding="UTF-8" standalone="no" ?>
<gpx xmlns="http://www.topografix.com/GPX/1/1" xmlns:xsi="http://www.w3.org/2001/XMLSchema-instance" xsi:schemaLocation="http://www.topografix.com/GPX/1/1 http://www.topografix.com/GPX/1/1/gpx.xsd" version="1.1" creator="VisuGPX - https://www.visugpx.com">
  <metadata>
    <name>jour 1_1_50km OK</name>
    <desc><![CDATA[changement car un chemin a été privatisé !]]></desc>
  </metadata>
  <wpt lat="50.64927" lon="5.83172">
    <ele>320.6</ele>
    <name><![CDATA[Fort de Battice]]></name>
  </wpt>
  <wpt lat="50.74201" lon="5.91444">
    <ele>268</ele>
    <name><![CDATA[RUINES]]></name>
  </wpt>
  <wpt lat="50.7418" lon="5.91595">
    <ele>264.9</ele>
    <name><![CDATA[RUINES]]></name>
  </wpt>
  <trk>
    <name><![CDATA[jour 1_1_52km_complet]]></name>
    <extensions>
      <line xmlns="http://www.topografix.com/GPX/gpx_style/0/2">
        <color>0000FF</color>
        <width>4</width>
      </line>
    </extensions>
    <trkseg>
      <trkpt lat="50.62459" lon="5.56676">
        <ele>69</ele>
        <time>2025-03-20T20:24:03Z</time>
      </trkpt>
      <trkpt lat="50.62478" lon="5.56758">
        <ele>65</ele>
        <time>2025-03-20T20:24:16Z</time>
      </trkpt>
      <trkpt lat="50.62439" lon="5.56826">
        <ele>67</ele>
        <time>2025-03-20T20:24:30Z</time>
      </trkpt>
      <trkpt lat="50.62514" lon="5.56895">
        <ele>67</ele>
        <time>2025-03-20T20:24:50Z</time>
      </trkpt>
      <trkpt lat="50.62536" lon="5.56923">
        <ele>67</ele>
        <time>2025-03-20T20:24:56Z</time>
      </trkpt>
      <trkpt lat="50.62626" lon="5.57087">
        <ele>66</ele>
        <time>2025-03-20T20:25:29Z</time>
      </trkpt>
      <trkpt lat="50.62753" lon="5.5727">
        <ele>70</ele>
        <time>2025-03-20T20:26:09Z</time>
      </trkpt>
      <trkpt lat="50.62768" lon="5.57303">
        <ele>67</ele>
        <time>2025-03-20T20:26:15Z</time>
      </trkpt>
      <trkpt lat="50.62761" lon="5.57312">
        <ele>67</ele>
        <time>2025-03-20T20:26:17Z</time>
      </trkpt>
      <trkpt lat="50.62781" lon="5.57369">
        <ele>61</ele>
        <time>2025-03-20T20:26:26Z</time>
      </trkpt>
      <trkpt lat="50.62865" lon="5.57542">
        <ele>65</ele>
        <time>2025-03-20T20:26:59Z</time>
      </trkpt>
      <trkpt lat="50.62848" lon="5.5756">
        <ele>66</ele>
        <time>2025-03-20T20:27:04Z</time>
      </trkpt>
      <trkpt lat="50.6279" lon="5.576">
        <ele>72</ele>
        <time>2025-03-20T20:27:18Z</time>
      </trkpt>
      <trkpt lat="50.62769" lon="5.57586">
        <ele>73</ele>
        <time>2025-03-20T20:27:24Z</time>
      </trkpt>
      <trkpt lat="50.62757" lon="5.57585">
        <ele>74</ele>
        <time>2025-03-20T20:27:26Z</time>
      </trkpt>
      <trkpt lat="50.62708" lon="5.57618">
        <ele>69</ele>
        <time>2025-03-20T20:27:39Z</time>
      </trkpt>
      <trkpt lat="50.62562" lon="5.57732">
        <ele>65</ele>
        <time>2025-03-20T20:28:17Z</time>
      </trkpt>
      <trkpt lat="50.62546" lon="5.57761">
        <ele>66</ele>
        <time>2025-03-20T20:28:23Z</time>
      </trkpt>
      <trkpt lat="50.62497" lon="5.57793">
        <ele>66</ele>
        <time>2025-03-20T20:28:35Z</time>
      </trkpt>
      <trkpt lat="50.62488" lon="5.57807">
        <ele>67</ele>
        <time>2025-03-20T20:28:38Z</time>
      </trkpt>
      <trkpt lat="50.62484" lon="5.57832">
        <ele>67</ele>
        <time>2025-03-20T20:28:42Z</time>
      </trkpt>
      <trkpt lat="50.625" lon="5.57977">
        <ele>66</ele>
        <time>2025-03-20T20:29:04Z</time>
      </trkpt>
      <trkpt lat="50.62425" lon="5.57984">
        <ele>63</ele>
        <time>2025-03-20T20:29:21Z</time>
      </trkpt>
      <trkpt lat="50.62398" lon="5.57993">
        <ele>62</ele>
        <time>2025-03-20T20:29:28Z</time>
      </trkpt>
      <trkpt lat="50.62364" lon="5.58012">
        <ele>61</ele>
        <time>2025-03-20T20:29:36Z</time>
      </trkpt>
      <trkpt lat="50.62331" lon="5.58038">
        <ele>61</ele>
        <time>2025-03-20T20:29:45Z</time>
      </trkpt>
      <trkpt lat="50.62281" lon="5.58093">
        <ele>62</ele>
        <time>2025-03-20T20:29:59Z</time>
      </trkpt>
      <trkpt lat="50.6228" lon="5.58103">
        <ele>63</ele>
        <time>2025-03-20T20:30:00Z</time>
      </trkpt>
      <trkpt lat="50.62223" lon="5.58216">
        <ele>66</ele>
        <time>2025-03-20T20:30:22Z</time>
      </trkpt>
      <trkpt lat="50.62212" lon="5.58221">
        <ele>65</ele>
        <time>2025-03-20T20:30:24Z</time>
      </trkpt>
      <trkpt lat="50.62206" lon="5.58229">
        <ele>65</ele>
        <time>2025-03-20T20:30:26Z</time>
      </trkpt>
      <trkpt lat="50.62197" lon="5.58249">
        <ele>66</ele>
        <time>2025-03-20T20:30:30Z</time>
      </trkpt>
      <trkpt lat="50.62162" lon="5.58342">
        <ele>69</ele>
        <time>2025-03-20T20:30:46Z</time>
      </trkpt>
      <trkpt lat="50.6216" lon="5.5836">
        <ele>69</ele>
        <time>2025-03-20T20:30:49Z</time>
      </trkpt>
      <trkpt lat="50.62042" lon="5.58702">
        <ele>65</ele>
        <time>2025-03-20T20:31:46Z</time>
      </trkpt>
      <trkpt lat="50.62011" lon="5.58803">
        <ele>66</ele>
        <time>2025-03-20T20:32:03Z</time>
      </trkpt>
      <trkpt lat="50.61961" lon="5.58935">
        <ele>69</ele>
        <time>2025-03-20T20:32:26Z</time>
      </trkpt>
      <trkpt lat="50.6192" lon="5.59032">
        <ele>70</ele>
        <time>2025-03-20T20:32:43Z</time>
      </trkpt>
      <trkpt lat="50.61833" lon="5.59211">
        <ele>64</ele>
        <time>2025-03-20T20:33:16Z</time>
      </trkpt>
      <trkpt lat="50.61821" lon="5.59222">
        <ele>64</ele>
        <time>2025-03-20T20:33:20Z</time>
      </trkpt>
      <trkpt lat="50.61762" lon="5.59153">
        <ele>65</ele>
        <time>2025-03-20T20:33:37Z</time>
      </trkpt>
      <trkpt lat="50.61703" lon="5.59281">
        <ele>70</ele>
        <time>2025-03-20T20:34:00Z</time>
      </trkpt>
      <trkpt lat="50.61628" lon="5.59468">
        <ele>72</ele>
        <time>2025-03-20T20:34:33Z</time>
      </trkpt>
      <trkpt lat="50.61571" lon="5.59655">
        <ele>67</ele>
        <time>2025-03-20T20:35:04Z</time>
      </trkpt>
      <trkpt lat="50.61505" lon="5.59902">
        <ele>64</ele>
        <time>2025-03-20T20:35:43Z</time>
      </trkpt>
      <trkpt lat="50.61487" lon="5.59983">
        <ele>64</ele>
        <time>2025-03-20T20:35:56Z</time>
      </trkpt>
      <trkpt lat="50.61482" lon="5.6004">
        <ele>64</ele>
        <time>2025-03-20T20:36:05Z</time>
      </trkpt>
      <trkpt lat="50.61473" lon="5.60093">
        <ele>65</ele>
        <time>2025-03-20T20:36:13Z</time>
      </trkpt>
      <trkpt lat="50.61455" lon="5.60131">
        <ele>65</ele>
        <time>2025-03-20T20:36:20Z</time>
      </trkpt>
      <trkpt lat="50.61448" lon="5.60184">
        <ele>66</ele>
        <time>2025-03-20T20:36:28Z</time>
      </trkpt>
      <trkpt lat="50.61428" lon="5.60195">
        <ele>67</ele>
        <time>2025-03-20T20:36:33Z</time>
      </trkpt>
      <trkpt lat="50.6141" lon="5.60246">
        <ele>68</ele>
        <time>2025-03-20T20:36:41Z</time>
      </trkpt>
      <trkpt lat="50.61152" lon="5.61203">
        <ele>65</ele>
        <time>2025-03-20T20:39:16Z</time>
      </trkpt>
      <trkpt lat="50.61127" lon="5.6119">
        <ele>64</ele>
        <time>2025-03-20T20:39:22Z</time>
      </trkpt>
      <trkpt lat="50.61118" lon="5.61224">
        <ele>65</ele>
        <time>2025-03-20T20:39:27Z</time>
      </trkpt>
      <trkpt lat="50.61108" lon="5.61238">
        <ele>65</ele>
        <time>2025-03-20T20:39:30Z</time>
      </trkpt>
      <trkpt lat="50.61093" lon="5.61248">
        <ele>64</ele>
        <time>2025-03-20T20:39:34Z</time>
      </trkpt>
      <trkpt lat="50.61074" lon="5.61252">
        <ele>64</ele>
        <time>2025-03-20T20:39:39Z</time>
      </trkpt>
      <trkpt lat="50.61052" lon="5.6125">
        <ele>65</ele>
        <time>2025-03-20T20:39:44Z</time>
      </trkpt>
      <trkpt lat="50.60952" lon="5.61221">
        <ele>67</ele>
        <time>2025-03-20T20:40:07Z</time>
      </trkpt>
      <trkpt lat="50.60892" lon="5.61197">
        <ele>68</ele>
        <time>2025-03-20T20:40:22Z</time>
      </trkpt>
      <trkpt lat="50.60926" lon="5.6122">
        <ele>67</ele>
        <time>2025-03-20T20:40:31Z</time>
      </trkpt>
      <trkpt lat="50.60854" lon="5.61471">
        <ele>67</ele>
        <time>2025-03-20T20:41:11Z</time>
      </trkpt>
      <trkpt lat="50.6084" lon="5.61557">
        <ele>69</ele>
        <time>2025-03-20T20:41:25Z</time>
      </trkpt>
      <trkpt lat="50.60851" lon="5.61565">
        <ele>69</ele>
        <time>2025-03-20T20:41:27Z</time>
      </trkpt>
      <trkpt lat="50.60849" lon="5.61612">
        <ele>69</ele>
        <time>2025-03-20T20:41:34Z</time>
      </trkpt>
      <trkpt lat="50.60814" lon="5.61728">
        <ele>70</ele>
        <time>2025-03-20T20:41:53Z</time>
      </trkpt>
      <trkpt lat="50.60815" lon="5.61745">
        <ele>70</ele>
        <time>2025-03-20T20:41:56Z</time>
      </trkpt>
      <trkpt lat="50.60802" lon="5.61794">
        <ele>70</ele>
        <time>2025-03-20T20:42:04Z</time>
      </trkpt>
      <trkpt lat="50.60744" lon="5.61975">
        <ele>71</ele>
        <time>2025-03-20T20:42:34Z</time>
      </trkpt>
      <trkpt lat="50.60686" lon="5.62091">
        <ele>71</ele>
        <time>2025-03-20T20:42:56Z</time>
      </trkpt>
      <trkpt lat="50.60663" lon="5.6215">
        <ele>72</ele>
        <time>2025-03-20T20:43:06Z</time>
      </trkpt>
      <trkpt lat="50.60504" lon="5.62638">
        <ele>70</ele>
        <time>2025-03-20T20:44:27Z</time>
      </trkpt>
      <trkpt lat="50.60464" lon="5.62767">
        <ele>70</ele>
        <time>2025-03-20T20:44:49Z</time>
      </trkpt>
      <trkpt lat="50.60446" lon="5.62758">
        <ele>70</ele>
        <time>2025-03-20T20:44:53Z</time>
      </trkpt>
      <trkpt lat="50.60441" lon="5.62762">
        <ele>70</ele>
        <time>2025-03-20T20:44:54Z</time>
      </trkpt>
      <trkpt lat="50.60425" lon="5.62801">
        <ele>70</ele>
        <time>2025-03-20T20:45:01Z</time>
      </trkpt>
      <trkpt lat="50.60396" lon="5.62964">
        <ele>70</ele>
        <time>2025-03-20T20:45:26Z</time>
      </trkpt>
      <trkpt lat="50.6035" lon="5.63151">
        <ele>71</ele>
        <time>2025-03-20T20:45:56Z</time>
      </trkpt>
      <trkpt lat="50.60335" lon="5.6325">
        <ele>70</ele>
        <time>2025-03-20T20:46:11Z</time>
      </trkpt>
      <trkpt lat="50.60322" lon="5.63363">
        <ele>72</ele>
        <time>2025-03-20T20:46:28Z</time>
      </trkpt>
      <trkpt lat="50.60317" lon="5.63439">
        <ele>73</ele>
        <time>2025-03-20T20:46:39Z</time>
      </trkpt>
      <trkpt lat="50.60318" lon="5.63457">
        <ele>73</ele>
        <time>2025-03-20T20:46:42Z</time>
      </trkpt>
      <trkpt lat="50.60331" lon="5.63503">
        <ele>74</ele>
        <time>2025-03-20T20:46:50Z</time>
      </trkpt>
      <trkpt lat="50.60346" lon="5.63505">
        <ele>75</ele>
        <time>2025-03-20T20:46:53Z</time>
      </trkpt>
      <trkpt lat="50.60355" lon="5.63523">
        <ele>76</ele>
        <time>2025-03-20T20:46:56Z</time>
      </trkpt>
      <trkpt lat="50.60354" lon="5.6355">
        <ele>77</ele>
        <time>2025-03-20T20:47:00Z</time>
      </trkpt>
      <trkpt lat="50.60348" lon="5.63563">
        <ele>78</ele>
        <time>2025-03-20T20:47:03Z</time>
      </trkpt>
      <trkpt lat="50.60351" lon="5.63584">
        <ele>79</ele>
        <time>2025-03-20T20:47:06Z</time>
      </trkpt>
      <trkpt lat="50.60402" lon="5.63632">
        <ele>83</ele>
        <time>2025-03-20T20:47:20Z</time>
      </trkpt>
      <trkpt lat="50.60446" lon="5.63616">
        <ele>83</ele>
        <time>2025-03-20T20:47:30Z</time>
      </trkpt>
      <trkpt lat="50.60487" lon="5.63582">
        <ele>83</ele>
        <time>2025-03-20T20:47:41Z</time>
      </trkpt>
      <trkpt lat="50.60534" lon="5.63635">
        <ele>87</ele>
        <time>2025-03-20T20:47:55Z</time>
      </trkpt>
      <trkpt lat="50.60618" lon="5.63705">
        <ele>93</ele>
        <time>2025-03-20T20:48:17Z</time>
      </trkpt>
      <trkpt lat="50.60625" lon="5.63692">
        <ele>93</ele>
        <time>2025-03-20T20:48:20Z</time>
      </trkpt>
      <trkpt lat="50.6064" lon="5.63685">
        <ele>93</ele>
        <time>2025-03-20T20:48:23Z</time>
      </trkpt>
      <trkpt lat="50.60697" lon="5.63679">
        <ele>95</ele>
        <time>2025-03-20T20:48:37Z</time>
      </trkpt>
      <trkpt lat="50.60769" lon="5.63651">
        <ele>96</ele>
        <time>2025-03-20T20:48:54Z</time>
      </trkpt>
      <trkpt lat="50.60814" lon="5.63627">
        <ele>96</ele>
        <time>2025-03-20T20:49:05Z</time>
      </trkpt>
      <trkpt lat="50.60846" lon="5.63601">
        <ele>95</ele>
        <time>2025-03-20T20:49:13Z</time>
      </trkpt>
      <trkpt lat="50.60881" lon="5.6356">
        <ele>94</ele>
        <time>2025-03-20T20:49:24Z</time>
      </trkpt>
      <trkpt lat="50.60907" lon="5.63525">
        <ele>93</ele>
        <time>2025-03-20T20:49:32Z</time>
      </trkpt>
      <trkpt lat="50.60932" lon="5.63479">
        <ele>92</ele>
        <time>2025-03-20T20:49:40Z</time>
      </trkpt>
      <trkpt lat="50.60955" lon="5.63424">
        <ele>93</ele>
        <time>2025-03-20T20:49:50Z</time>
      </trkpt>
      <trkpt lat="50.60969" lon="5.63384">
        <ele>95</ele>
        <time>2025-03-20T20:49:57Z</time>
      </trkpt>
      <trkpt lat="50.60994" lon="5.63284">
        <ele>99</ele>
        <time>2025-03-20T20:50:13Z</time>
      </trkpt>
      <trkpt lat="50.61019" lon="5.63156">
        <ele>100</ele>
        <time>2025-03-20T20:50:33Z</time>
      </trkpt>
      <trkpt lat="50.61079" lon="5.62877">
        <ele>98</ele>
        <time>2025-03-20T20:51:16Z</time>
      </trkpt>
      <trkpt lat="50.61096" lon="5.62825">
        <ele>98</ele>
        <time>2025-03-20T20:51:25Z</time>
      </trkpt>
      <trkpt lat="50.61129" lon="5.62747">
        <ele>101</ele>
        <time>2025-03-20T20:51:39Z</time>
      </trkpt>
      <trkpt lat="50.61172" lon="5.62671">
        <ele>104</ele>
        <time>2025-03-20T20:51:54Z</time>
      </trkpt>
      <trkpt lat="50.61182" lon="5.62664">
        <ele>105</ele>
        <time>2025-03-20T20:51:57Z</time>
      </trkpt>
      <trkpt lat="50.61233" lon="5.62608">
        <ele>110</ele>
        <time>2025-03-20T20:52:11Z</time>
      </trkpt>
      <trkpt lat="50.61269" lon="5.62581">
        <ele>112</ele>
        <time>2025-03-20T20:52:20Z</time>
      </trkpt>
      <trkpt lat="50.61321" lon="5.62553">
        <ele>113</ele>
        <time>2025-03-20T20:52:33Z</time>
      </trkpt>
      <trkpt lat="50.61469" lon="5.62488">
        <ele>109</ele>
        <time>2025-03-20T20:53:09Z</time>
      </trkpt>
      <trkpt lat="50.61526" lon="5.62453">
        <ele>113</ele>
        <time>2025-03-20T20:53:23Z</time>
      </trkpt>
      <trkpt lat="50.61566" lon="5.62421">
        <ele>120</ele>
        <time>2025-03-20T20:53:34Z</time>
      </trkpt>
      <trkpt lat="50.61596" lon="5.62391">
        <ele>123</ele>
        <time>2025-03-20T20:53:42Z</time>
      </trkpt>
      <trkpt lat="50.6164" lon="5.62336">
        <ele>122</ele>
        <time>2025-03-20T20:53:55Z</time>
      </trkpt>
      <trkpt lat="50.61748" lon="5.62154">
        <ele>125</ele>
        <time>2025-03-20T20:54:32Z</time>
      </trkpt>
      <trkpt lat="50.61791" lon="5.62093">
        <ele>127</ele>
        <time>2025-03-20T20:54:46Z</time>
      </trkpt>
      <trkpt lat="50.61841" lon="5.62045">
        <ele>128</ele>
        <time>2025-03-20T20:54:59Z</time>
      </trkpt>
      <trkpt lat="50.61864" lon="5.62028">
        <ele>129</ele>
        <time>2025-03-20T20:55:05Z</time>
      </trkpt>
      <trkpt lat="50.61895" lon="5.62009">
        <ele>130</ele>
        <time>2025-03-20T20:55:13Z</time>
      </trkpt>
      <trkpt lat="50.61932" lon="5.61996">
        <ele>130</ele>
        <time>2025-03-20T20:55:22Z</time>
      </trkpt>
      <trkpt lat="50.61981" lon="5.6199">
        <ele>131</ele>
        <time>2025-03-20T20:55:34Z</time>
      </trkpt>
      <trkpt lat="50.6203" lon="5.6199">
        <ele>131</ele>
        <time>2025-03-20T20:55:45Z</time>
      </trkpt>
      <trkpt lat="50.62041" lon="5.61985">
        <ele>131</ele>
        <time>2025-03-20T20:55:48Z</time>
      </trkpt>
      <trkpt lat="50.62087" lon="5.62001">
        <ele>131</ele>
        <time>2025-03-20T20:55:59Z</time>
      </trkpt>
      <trkpt lat="50.62124" lon="5.62018">
        <ele>132</ele>
        <time>2025-03-20T20:56:08Z</time>
      </trkpt>
      <trkpt lat="50.62151" lon="5.62036">
        <ele>132</ele>
        <time>2025-03-20T20:56:14Z</time>
      </trkpt>
      <trkpt lat="50.62193" lon="5.62071">
        <ele>134</ele>
        <time>2025-03-20T20:56:26Z</time>
      </trkpt>
      <trkpt lat="50.62215" lon="5.62097">
        <ele>134</ele>
        <time>2025-03-20T20:56:32Z</time>
      </trkpt>
      <trkpt lat="50.62268" lon="5.62171">
        <ele>137</ele>
        <time>2025-03-20T20:56:49Z</time>
      </trkpt>
      <trkpt lat="50.62273" lon="5.6217">
        <ele>137</ele>
        <time>2025-03-20T20:56:50Z</time>
      </trkpt>
      <trkpt lat="50.62281" lon="5.62183">
        <ele>137</ele>
        <time>2025-03-20T20:56:52Z</time>
      </trkpt>
      <trkpt lat="50.62279" lon="5.62188">
        <ele>138</ele>
        <time>2025-03-20T20:56:53Z</time>
      </trkpt>
      <trkpt lat="50.62297" lon="5.62215">
        <ele>138</ele>
        <time>2025-03-20T20:56:59Z</time>
      </trkpt>
      <trkpt lat="50.62407" lon="5.6237">
        <ele>143</ele>
        <time>2025-03-20T20:57:34Z</time>
      </trkpt>
      <trkpt lat="50.62444" lon="5.62406">
        <ele>143</ele>
        <time>2025-03-20T20:57:44Z</time>
      </trkpt>
      <trkpt lat="50.62479" lon="5.62433">
        <ele>143</ele>
        <time>2025-03-20T20:57:53Z</time>
      </trkpt>
      <trkpt lat="50.62511" lon="5.62452">
        <ele>142</ele>
        <time>2025-03-20T20:58:01Z</time>
      </trkpt>
      <trkpt lat="50.62543" lon="5.62466">
        <ele>142</ele>
        <time>2025-03-20T20:58:09Z</time>
      </trkpt>
      <trkpt lat="50.62571" lon="5.62474">
        <ele>142</ele>
        <time>2025-03-20T20:58:15Z</time>
      </trkpt>
      <trkpt lat="50.62605" lon="5.62479">
        <ele>142</ele>
        <time>2025-03-20T20:58:23Z</time>
      </trkpt>
      <trkpt lat="50.62668" lon="5.6248">
        <ele>145</ele>
        <time>2025-03-20T20:58:38Z</time>
      </trkpt>
      <trkpt lat="50.62836" lon="5.62436">
        <ele>150</ele>
        <time>2025-03-20T20:59:18Z</time>
      </trkpt>
      <trkpt lat="50.6284" lon="5.62409">
        <ele>149</ele>
        <time>2025-03-20T20:59:22Z</time>
      </trkpt>
      <trkpt lat="50.62855" lon="5.62413">
        <ele>150</ele>
        <time>2025-03-20T20:59:25Z</time>
      </trkpt>
      <trkpt lat="50.62864" lon="5.62429">
        <ele>151</ele>
        <time>2025-03-20T20:59:28Z</time>
      </trkpt>
      <trkpt lat="50.62871" lon="5.62429">
        <ele>151</ele>
        <time>2025-03-20T20:59:30Z</time>
      </trkpt>
      <trkpt lat="50.63105" lon="5.62361">
        <ele>153</ele>
        <time>2025-03-20T21:00:26Z</time>
      </trkpt>
      <trkpt lat="50.6312" lon="5.62345">
        <ele>154</ele>
        <time>2025-03-20T21:00:30Z</time>
      </trkpt>
      <trkpt lat="50.63147" lon="5.62335">
        <ele>155</ele>
        <time>2025-03-20T21:00:36Z</time>
      </trkpt>
      <trkpt lat="50.63201" lon="5.6233">
        <ele>155</ele>
        <time>2025-03-20T21:00:49Z</time>
      </trkpt>
      <trkpt lat="50.63258" lon="5.62329">
        <ele>154</ele>
        <time>2025-03-20T21:01:02Z</time>
      </trkpt>
      <trkpt lat="50.63302" lon="5.6235">
        <ele>155</ele>
        <time>2025-03-20T21:01:13Z</time>
      </trkpt>
      <trkpt lat="50.63385" lon="5.6241">
        <ele>157</ele>
        <time>2025-03-20T21:01:34Z</time>
      </trkpt>
      <trkpt lat="50.63421" lon="5.62456">
        <ele>158</ele>
        <time>2025-03-20T21:01:45Z</time>
      </trkpt>
      <trkpt lat="50.63463" lon="5.62533">
        <ele>161</ele>
        <time>2025-03-20T21:02:00Z</time>
      </trkpt>
      <trkpt lat="50.63488" lon="5.62606">
        <ele>163</ele>
        <time>2025-03-20T21:02:13Z</time>
      </trkpt>
      <trkpt lat="50.63505" lon="5.62676">
        <ele>164</ele>
        <time>2025-03-20T21:02:24Z</time>
      </trkpt>
      <trkpt lat="50.63513" lon="5.62797">
        <ele>168</ele>
        <time>2025-03-20T21:02:42Z</time>
      </trkpt>
      <trkpt lat="50.63509" lon="5.62862">
        <ele>171</ele>
        <time>2025-03-20T21:02:51Z</time>
      </trkpt>
      <trkpt lat="50.63492" lon="5.62962">
        <ele>174</ele>
        <time>2025-03-20T21:03:07Z</time>
      </trkpt>
      <trkpt lat="50.63481" lon="5.63002">
        <ele>174</ele>
        <time>2025-03-20T21:03:13Z</time>
      </trkpt>
      <trkpt lat="50.63483" lon="5.63008">
        <ele>174</ele>
        <time>2025-03-20T21:03:14Z</time>
      </trkpt>
      <trkpt lat="50.63474" lon="5.63019">
        <ele>174</ele>
        <time>2025-03-20T21:03:17Z</time>
      </trkpt>
      <trkpt lat="50.63462" lon="5.63054">
        <ele>175</ele>
        <time>2025-03-20T21:03:23Z</time>
      </trkpt>
      <trkpt lat="50.63419" lon="5.63135">
        <ele>177</ele>
        <time>2025-03-20T21:03:38Z</time>
      </trkpt>
      <trkpt lat="50.63384" lon="5.6318">
        <ele>178</ele>
        <time>2025-03-20T21:03:49Z</time>
      </trkpt>
      <trkpt lat="50.63318" lon="5.63234">
        <ele>180</ele>
        <time>2025-03-20T21:04:06Z</time>
      </trkpt>
      <trkpt lat="50.63305" lon="5.63235">
        <ele>180</ele>
        <time>2025-03-20T21:04:09Z</time>
      </trkpt>
      <trkpt lat="50.63171" lon="5.63284">
        <ele>183</ele>
        <time>2025-03-20T21:04:41Z</time>
      </trkpt>
      <trkpt lat="50.62843" lon="5.63393">
        <ele>187</ele>
        <time>2025-03-20T21:06:00Z</time>
      </trkpt>
      <trkpt lat="50.62805" lon="5.63414">
        <ele>187</ele>
        <time>2025-03-20T21:06:09Z</time>
      </trkpt>
      <trkpt lat="50.62754" lon="5.63452">
        <ele>187</ele>
        <time>2025-03-20T21:06:22Z</time>
      </trkpt>
      <trkpt lat="50.62691" lon="5.6352">
        <ele>187</ele>
        <time>2025-03-20T21:06:40Z</time>
      </trkpt>
      <trkpt lat="50.62627" lon="5.63611">
        <ele>191</ele>
        <time>2025-03-20T21:07:00Z</time>
      </trkpt>
      <trkpt lat="50.62612" lon="5.63639">
        <ele>192</ele>
        <time>2025-03-20T21:07:06Z</time>
      </trkpt>
      <trkpt lat="50.62576" lon="5.63722">
        <ele>194</ele>
        <time>2025-03-20T21:07:21Z</time>
      </trkpt>
      <trkpt lat="50.62554" lon="5.63799">
        <ele>195</ele>
        <time>2025-03-20T21:07:33Z</time>
      </trkpt>
      <trkpt lat="50.62487" lon="5.64115">
        <ele>203</ele>
        <time>2025-03-20T21:08:22Z</time>
      </trkpt>
      <trkpt lat="50.62477" lon="5.64199">
        <ele>204</ele>
        <time>2025-03-20T21:08:35Z</time>
      </trkpt>
      <trkpt lat="50.62464" lon="5.64504">
        <ele>206</ele>
        <time>2025-03-20T21:09:20Z</time>
      </trkpt>
      <trkpt lat="50.62456" lon="5.64573">
        <ele>206</ele>
        <time>2025-03-20T21:09:31Z</time>
      </trkpt>
      <trkpt lat="50.62445" lon="5.64633">
        <ele>207</ele>
        <time>2025-03-20T21:09:40Z</time>
      </trkpt>
      <trkpt lat="50.62431" lon="5.64688">
        <ele>208</ele>
        <time>2025-03-20T21:09:49Z</time>
      </trkpt>
      <trkpt lat="50.62402" lon="5.64777">
        <ele>212</ele>
        <time>2025-03-20T21:10:04Z</time>
      </trkpt>
      <trkpt lat="50.62382" lon="5.64826">
        <ele>216</ele>
        <time>2025-03-20T21:10:12Z</time>
      </trkpt>
      <trkpt lat="50.62357" lon="5.64873">
        <ele>220</ele>
        <time>2025-03-20T21:10:21Z</time>
      </trkpt>
      <trkpt lat="50.62285" lon="5.64977">
        <ele>224</ele>
        <time>2025-03-20T21:10:44Z</time>
      </trkpt>
      <trkpt lat="50.62241" lon="5.65022">
        <ele>226</ele>
        <time>2025-03-20T21:10:56Z</time>
      </trkpt>
      <trkpt lat="50.62078" lon="5.6515">
        <ele>228</ele>
        <time>2025-03-20T21:11:39Z</time>
      </trkpt>
      <trkpt lat="50.62037" lon="5.65187">
        <ele>229</ele>
        <time>2025-03-20T21:11:50Z</time>
      </trkpt>
      <trkpt lat="50.61975" lon="5.65265">
        <ele>234</ele>
        <time>2025-03-20T21:12:08Z</time>
      </trkpt>
      <trkpt lat="50.61938" lon="5.65332">
        <ele>236</ele>
        <time>2025-03-20T21:12:22Z</time>
      </trkpt>
      <trkpt lat="50.6191" lon="5.65398">
        <ele>237</ele>
        <time>2025-03-20T21:12:33Z</time>
      </trkpt>
      <trkpt lat="50.61842" lon="5.65584">
        <ele>235</ele>
        <time>2025-03-20T21:13:05Z</time>
      </trkpt>
      <trkpt lat="50.61841" lon="5.65602">
        <ele>235</ele>
        <time>2025-03-20T21:13:08Z</time>
      </trkpt>
      <trkpt lat="50.61816" lon="5.65671">
        <ele>234</ele>
        <time>2025-03-20T21:13:20Z</time>
      </trkpt>
      <trkpt lat="50.61803" lon="5.65685">
        <ele>233</ele>
        <time>2025-03-20T21:13:23Z</time>
      </trkpt>
      <trkpt lat="50.61697" lon="5.65987">
        <ele>234</ele>
        <time>2025-03-20T21:14:14Z</time>
      </trkpt>
      <trkpt lat="50.61644" lon="5.66126">
        <ele>240</ele>
        <time>2025-03-20T21:14:38Z</time>
      </trkpt>
      <trkpt lat="50.61647" lon="5.66147">
        <ele>240</ele>
        <time>2025-03-20T21:14:42Z</time>
      </trkpt>
      <trkpt lat="50.61637" lon="5.6616">
        <ele>240</ele>
        <time>2025-03-20T21:14:45Z</time>
      </trkpt>
      <trkpt lat="50.61602" lon="5.66259">
        <ele>242</ele>
        <time>2025-03-20T21:15:01Z</time>
      </trkpt>
      <trkpt lat="50.61552" lon="5.66379">
        <ele>247</ele>
        <time>2025-03-20T21:15:23Z</time>
      </trkpt>
      <trkpt lat="50.61493" lon="5.66496">
        <ele>247</ele>
        <time>2025-03-20T21:15:45Z</time>
      </trkpt>
      <trkpt lat="50.61199" lon="5.67022">
        <ele>256</ele>
        <time>2025-03-20T21:17:29Z</time>
      </trkpt>
      <trkpt lat="50.61197" lon="5.67042">
        <ele>256</ele>
        <time>2025-03-20T21:17:32Z</time>
      </trkpt>
      <trkpt lat="50.61189" lon="5.67044">
        <ele>256</ele>
        <time>2025-03-20T21:17:34Z</time>
      </trkpt>
      <trkpt lat="50.61158" lon="5.67097">
        <ele>256</ele>
        <time>2025-03-20T21:17:44Z</time>
      </trkpt>
      <trkpt lat="50.61133" lon="5.67161">
        <ele>257</ele>
        <time>2025-03-20T21:17:55Z</time>
      </trkpt>
      <trkpt lat="50.61115" lon="5.67216">
        <ele>256</ele>
        <time>2025-03-20T21:18:05Z</time>
      </trkpt>
      <trkpt lat="50.61097" lon="5.67308">
        <ele>257</ele>
        <time>2025-03-20T21:18:19Z</time>
      </trkpt>
      <trkpt lat="50.61088" lon="5.67404">
        <ele>258</ele>
        <time>2025-03-20T21:18:33Z</time>
      </trkpt>
      <trkpt lat="50.61088" lon="5.67469">
        <ele>259</ele>
        <time>2025-03-20T21:18:43Z</time>
      </trkpt>
      <trkpt lat="50.61094" lon="5.67549">
        <ele>260</ele>
        <time>2025-03-20T21:18:55Z</time>
      </trkpt>
      <trkpt lat="50.61107" lon="5.67621">
        <ele>260</ele>
        <time>2025-03-20T21:19:06Z</time>
      </trkpt>
      <trkpt lat="50.61127" lon="5.67692">
        <ele>261</ele>
        <time>2025-03-20T21:19:17Z</time>
      </trkpt>
      <trkpt lat="50.61162" lon="5.67779">
        <ele>263</ele>
        <time>2025-03-20T21:19:33Z</time>
      </trkpt>
      <trkpt lat="50.61218" lon="5.67879">
        <ele>263</ele>
        <time>2025-03-20T21:19:53Z</time>
      </trkpt>
      <trkpt lat="50.61428" lon="5.68211">
        <ele>261</ele>
        <time>2025-03-20T21:21:02Z</time>
      </trkpt>
      <trkpt lat="50.61452" lon="5.68236">
        <ele>261</ele>
        <time>2025-03-20T21:21:09Z</time>
      </trkpt>
      <trkpt lat="50.61468" lon="5.68236">
        <ele>261</ele>
        <time>2025-03-20T21:21:12Z</time>
      </trkpt>
      <trkpt lat="50.61469" lon="5.68244">
        <ele>261</ele>
        <time>2025-03-20T21:21:14Z</time>
      </trkpt>
      <trkpt lat="50.61485" lon="5.68269">
        <ele>261</ele>
        <time>2025-03-20T21:21:19Z</time>
      </trkpt>
      <trkpt lat="50.61481" lon="5.68286">
        <ele>261</ele>
        <time>2025-03-20T21:21:22Z</time>
      </trkpt>
      <trkpt lat="50.61512" lon="5.68332">
        <ele>261</ele>
        <time>2025-03-20T21:21:32Z</time>
      </trkpt>
      <trkpt lat="50.61515" lon="5.68348">
        <ele>261</ele>
        <time>2025-03-20T21:21:34Z</time>
      </trkpt>
      <trkpt lat="50.61662" lon="5.68581">
        <ele>261</ele>
        <time>2025-03-20T21:22:23Z</time>
      </trkpt>
      <trkpt lat="50.61672" lon="5.68589">
        <ele>261</ele>
        <time>2025-03-20T21:22:25Z</time>
      </trkpt>
      <trkpt lat="50.61675" lon="5.68605">
        <ele>261</ele>
        <time>2025-03-20T21:22:28Z</time>
      </trkpt>
      <trkpt lat="50.61689" lon="5.68618">
        <ele>261</ele>
        <time>2025-03-20T21:22:32Z</time>
      </trkpt>
      <trkpt lat="50.61757" lon="5.68735">
        <ele>262</ele>
        <time>2025-03-20T21:22:55Z</time>
      </trkpt>
      <trkpt lat="50.61818" lon="5.68853">
        <ele>262</ele>
        <time>2025-03-20T21:23:18Z</time>
      </trkpt>
      <trkpt lat="50.62058" lon="5.69424">
        <ele>260</ele>
        <time>2025-03-20T21:24:59Z</time>
      </trkpt>
      <trkpt lat="50.62058" lon="5.69434">
        <ele>260</ele>
        <time>2025-03-20T21:25:01Z</time>
      </trkpt>
      <trkpt lat="50.62068" lon="5.69447">
        <ele>260</ele>
        <time>2025-03-20T21:25:04Z</time>
      </trkpt>
      <trkpt lat="50.6227" lon="5.69925">
        <ele>263</ele>
        <time>2025-03-20T21:26:29Z</time>
      </trkpt>
      <trkpt lat="50.6229" lon="5.69985">
        <ele>262</ele>
        <time>2025-03-20T21:26:39Z</time>
      </trkpt>
      <trkpt lat="50.62301" lon="5.69994">
        <ele>262</ele>
        <time>2025-03-20T21:26:42Z</time>
      </trkpt>
      <trkpt lat="50.62359" lon="5.70155">
        <ele>263</ele>
        <time>2025-03-20T21:27:09Z</time>
      </trkpt>
      <trkpt lat="50.627" lon="5.7127">
        <ele>272</ele>
        <time>2025-03-20T21:30:12Z</time>
      </trkpt>
      <trkpt lat="50.62904" lon="5.71922">
        <ele>266</ele>
        <time>2025-03-20T21:32:00Z</time>
      </trkpt>
      <trkpt lat="50.63133" lon="5.72911">
        <ele>274</ele>
        <time>2025-03-20T21:34:36Z</time>
      </trkpt>
      <trkpt lat="50.63145" lon="5.72956">
        <ele>274</ele>
        <time>2025-03-20T21:34:43Z</time>
      </trkpt>
      <trkpt lat="50.63166" lon="5.73005">
        <ele>273</ele>
        <time>2025-03-20T21:34:52Z</time>
      </trkpt>
      <trkpt lat="50.63195" lon="5.73122">
        <ele>274</ele>
        <time>2025-03-20T21:35:11Z</time>
      </trkpt>
      <trkpt lat="50.63195" lon="5.73196">
        <ele>275</ele>
        <time>2025-03-20T21:35:22Z</time>
      </trkpt>
      <trkpt lat="50.63205" lon="5.7325">
        <ele>275</ele>
        <time>2025-03-20T21:35:30Z</time>
      </trkpt>
      <trkpt lat="50.6326" lon="5.73484">
        <ele>276</ele>
        <time>2025-03-20T21:36:07Z</time>
      </trkpt>
      <trkpt lat="50.63277" lon="5.73541">
        <ele>277</ele>
        <time>2025-03-20T21:36:16Z</time>
      </trkpt>
      <trkpt lat="50.63333" lon="5.73783">
        <ele>278</ele>
        <time>2025-03-20T21:36:54Z</time>
      </trkpt>
      <trkpt lat="50.63499" lon="5.74532">
        <ele>278</ele>
        <time>2025-03-20T21:38:52Z</time>
      </trkpt>
      <trkpt lat="50.63509" lon="5.74543">
        <ele>278</ele>
        <time>2025-03-20T21:38:55Z</time>
      </trkpt>
      <trkpt lat="50.63513" lon="5.74558">
        <ele>278</ele>
        <time>2025-03-20T21:38:57Z</time>
      </trkpt>
      <trkpt lat="50.63511" lon="5.74575">
        <ele>278</ele>
        <time>2025-03-20T21:39:00Z</time>
      </trkpt>
      <trkpt lat="50.63516" lon="5.74605">
        <ele>278</ele>
        <time>2025-03-20T21:39:04Z</time>
      </trkpt>
      <trkpt lat="50.63636" lon="5.75131">
        <ele>277</ele>
        <time>2025-03-20T21:40:27Z</time>
      </trkpt>
      <trkpt lat="50.63665" lon="5.75272">
        <ele>278</ele>
        <time>2025-03-20T21:40:49Z</time>
      </trkpt>
      <trkpt lat="50.63681" lon="5.75365">
        <ele>278</ele>
        <time>2025-03-20T21:41:03Z</time>
      </trkpt>
      <trkpt lat="50.63705" lon="5.75545">
        <ele>279</ele>
        <time>2025-03-20T21:41:31Z</time>
      </trkpt>
      <trkpt lat="50.64009" lon="5.78272">
        <ele>299</ele>
        <time>2025-03-20T21:48:21Z</time>
      </trkpt>
      <trkpt lat="50.64041" lon="5.78413">
        <ele>299</ele>
        <time>2025-03-20T21:48:43Z</time>
      </trkpt>
      <trkpt lat="50.64231" lon="5.79058">
        <ele>305</ele>
        <time>2025-03-20T21:50:28Z</time>
      </trkpt>
      <trkpt lat="50.64239" lon="5.79077">
        <ele>305</ele>
        <time>2025-03-20T21:50:32Z</time>
      </trkpt>
      <trkpt lat="50.64247" lon="5.79114">
        <ele>305</ele>
        <time>2025-03-20T21:50:37Z</time>
      </trkpt>
      <trkpt lat="50.64287" lon="5.7922">
        <ele>307</ele>
        <time>2025-03-20T21:50:56Z</time>
      </trkpt>
      <trkpt lat="50.64305" lon="5.79252">
        <ele>308</ele>
        <time>2025-03-20T21:51:02Z</time>
      </trkpt>
      <trkpt lat="50.64335" lon="5.79294">
        <ele>309</ele>
        <time>2025-03-20T21:51:11Z</time>
      </trkpt>
      <trkpt lat="50.64384" lon="5.79338">
        <ele>310</ele>
        <time>2025-03-20T21:51:25Z</time>
      </trkpt>
      <trkpt lat="50.64496" lon="5.79422">
        <ele>309</ele>
        <time>2025-03-20T21:51:54Z</time>
      </trkpt>
      <trkpt lat="50.64567" lon="5.79484">
        <ele>309</ele>
        <time>2025-03-20T21:52:12Z</time>
      </trkpt>
      <trkpt lat="50.64585" lon="5.79504">
        <ele>310</ele>
        <time>2025-03-20T21:52:18Z</time>
      </trkpt>
      <trkpt lat="50.64645" lon="5.79592">
        <ele>309</ele>
        <time>2025-03-20T21:52:37Z</time>
      </trkpt>
      <trkpt lat="50.64668" lon="5.79632">
        <ele>309</ele>
        <time>2025-03-20T21:52:45Z</time>
      </trkpt>
      <trkpt lat="50.64699" lon="5.79706">
        <ele>309</ele>
        <time>2025-03-20T21:52:58Z</time>
      </trkpt>
      <trkpt lat="50.64708" lon="5.79714">
        <ele>308</ele>
        <time>2025-03-20T21:53:00Z</time>
      </trkpt>
      <trkpt lat="50.64707" lon="5.79728">
        <ele>309</ele>
        <time>2025-03-20T21:53:02Z</time>
      </trkpt>
      <trkpt lat="50.64761" lon="5.79909">
        <ele>311</ele>
        <time>2025-03-20T21:53:32Z</time>
      </trkpt>
      <trkpt lat="50.65068" lon="5.80975">
        <ele>318</ele>
        <time>2025-03-20T21:56:25Z</time>
      </trkpt>
      <trkpt lat="50.65073" lon="5.80985">
        <ele>318</ele>
        <time>2025-03-20T21:56:27Z</time>
      </trkpt>
      <trkpt lat="50.6508" lon="5.80987">
        <ele>318</ele>
        <time>2025-03-20T21:56:29Z</time>
      </trkpt>
      <trkpt lat="50.6508" lon="5.81014">
        <ele>318</ele>
        <time>2025-03-20T21:56:33Z</time>
      </trkpt>
      <trkpt lat="50.65188" lon="5.81394">
        <ele>318</ele>
        <time>2025-03-20T21:57:35Z</time>
      </trkpt>
      <trkpt lat="50.6521" lon="5.81516">
        <ele>317</ele>
        <time>2025-03-20T21:57:53Z</time>
      </trkpt>
      <trkpt lat="50.65214" lon="5.81625">
        <ele>317</ele>
        <time>2025-03-20T21:58:10Z</time>
      </trkpt>
      <trkpt lat="50.65213" lon="5.81689">
        <ele>317</ele>
        <time>2025-03-20T21:58:19Z</time>
      </trkpt>
      <trkpt lat="50.65203" lon="5.81799">
        <ele>315</ele>
        <time>2025-03-20T21:58:35Z</time>
      </trkpt>
      <trkpt lat="50.65192" lon="5.81855">
        <ele>315</ele>
        <time>2025-03-20T21:58:44Z</time>
      </trkpt>
      <trkpt lat="50.65171" lon="5.81932">
        <ele>316</ele>
        <time>2025-03-20T21:58:57Z</time>
      </trkpt>
      <trkpt lat="50.6515" lon="5.81998">
        <ele>316</ele>
        <time>2025-03-20T21:59:07Z</time>
      </trkpt>
      <trkpt lat="50.64973" lon="5.82459">
        <ele>317</ele>
        <time>2025-03-20T22:00:27Z</time>
      </trkpt>
      <trkpt lat="50.64928" lon="5.82597">
        <ele>319</ele>
        <time>2025-03-20T22:00:50Z</time>
      </trkpt>
      <trkpt lat="50.64912" lon="5.82677">
        <ele>318</ele>
        <time>2025-03-20T22:01:03Z</time>
      </trkpt>
      <trkpt lat="50.64905" lon="5.82789">
        <ele>317</ele>
        <time>2025-03-20T22:01:19Z</time>
      </trkpt>
      <trkpt lat="50.64909" lon="5.82874">
        <ele>317</ele>
        <time>2025-03-20T22:01:32Z</time>
      </trkpt>
      <trkpt lat="50.64932" lon="5.8308">
        <ele>318</ele>
        <time>2025-03-20T22:02:03Z</time>
      </trkpt>
      <trkpt lat="50.64922" lon="5.83122">
        <ele>319</ele>
        <time>2025-03-20T22:02:10Z</time>
      </trkpt>
      <trkpt lat="50.64924" lon="5.83155">
        <ele>320</ele>
        <time>2025-03-20T22:02:14Z</time>
      </trkpt>
      <trkpt lat="50.64935" lon="5.83167">
        <ele>320</ele>
        <time>2025-03-20T22:02:18Z</time>
      </trkpt>
      <trkpt lat="50.64937" lon="5.83175">
        <ele>320</ele>
        <time>2025-03-20T22:02:19Z</time>
      </trkpt>
      <trkpt lat="50.64936" lon="5.83283">
        <ele>322</ele>
        <time>2025-03-20T22:02:35Z</time>
      </trkpt>
      <trkpt lat="50.64921" lon="5.83382">
        <ele>323</ele>
        <time>2025-03-20T22:02:50Z</time>
      </trkpt>
      <trkpt lat="50.64904" lon="5.83462">
        <ele>323</ele>
        <time>2025-03-20T22:03:02Z</time>
      </trkpt>
      <trkpt lat="50.64878" lon="5.83541">
        <ele>321</ele>
        <time>2025-03-20T22:03:16Z</time>
      </trkpt>
      <trkpt lat="50.64791" lon="5.83779">
        <ele>311</ele>
        <time>2025-03-20T22:03:56Z</time>
      </trkpt>
      <trkpt lat="50.64776" lon="5.83835">
        <ele>311</ele>
        <time>2025-03-20T22:04:05Z</time>
      </trkpt>
      <trkpt lat="50.64757" lon="5.83927">
        <ele>313</ele>
        <time>2025-03-20T22:04:20Z</time>
      </trkpt>
      <trkpt lat="50.64747" lon="5.84013">
        <ele>312</ele>
        <time>2025-03-20T22:04:33Z</time>
      </trkpt>
      <trkpt lat="50.64747" lon="5.84102">
        <ele>308</ele>
        <time>2025-03-20T22:04:46Z</time>
      </trkpt>
      <trkpt lat="50.64759" lon="5.84473">
        <ele>303</ele>
        <time>2025-03-20T22:05:41Z</time>
      </trkpt>
      <trkpt lat="50.64758" lon="5.84546">
        <ele>299</ele>
        <time>2025-03-20T22:05:52Z</time>
      </trkpt>
      <trkpt lat="50.64743" lon="5.84641">
        <ele>296</ele>
        <time>2025-03-20T22:06:06Z</time>
      </trkpt>
      <trkpt lat="50.64689" lon="5.84845">
        <ele>294</ele>
        <time>2025-03-20T22:06:39Z</time>
      </trkpt>
      <trkpt lat="50.64655" lon="5.85004">
        <ele>295</ele>
        <time>2025-03-20T22:07:04Z</time>
      </trkpt>
      <trkpt lat="50.64646" lon="5.85068">
        <ele>296</ele>
        <time>2025-03-20T22:07:13Z</time>
      </trkpt>
      <trkpt lat="50.64643" lon="5.85221">
        <ele>295</ele>
        <time>2025-03-20T22:07:36Z</time>
      </trkpt>
      <trkpt lat="50.64658" lon="5.85329">
        <ele>297</ele>
        <time>2025-03-20T22:07:52Z</time>
      </trkpt>
      <trkpt lat="50.64675" lon="5.85397">
        <ele>296</ele>
        <time>2025-03-20T22:08:03Z</time>
      </trkpt>
      <trkpt lat="50.647" lon="5.8547">
        <ele>294</ele>
        <time>2025-03-20T22:08:16Z</time>
      </trkpt>
      <trkpt lat="50.64725" lon="5.85518">
        <ele>290</ele>
        <time>2025-03-20T22:08:25Z</time>
      </trkpt>
      <trkpt lat="50.64759" lon="5.8557">
        <ele>286</ele>
        <time>2025-03-20T22:08:36Z</time>
      </trkpt>
      <trkpt lat="50.6481" lon="5.85637">
        <ele>284</ele>
        <time>2025-03-20T22:08:51Z</time>
      </trkpt>
      <trkpt lat="50.65086" lon="5.85989">
        <ele>282</ele>
        <time>2025-03-20T22:10:14Z</time>
      </trkpt>
      <trkpt lat="50.65121" lon="5.86053">
        <ele>281</ele>
        <time>2025-03-20T22:10:27Z</time>
      </trkpt>
      <trkpt lat="50.65158" lon="5.86146">
        <ele>281</ele>
        <time>2025-03-20T22:10:43Z</time>
      </trkpt>
      <trkpt lat="50.65192" lon="5.86262">
        <ele>280</ele>
        <time>2025-03-20T22:11:02Z</time>
      </trkpt>
      <trkpt lat="50.6524" lon="5.86567">
        <ele>277</ele>
        <time>2025-03-20T22:11:48Z</time>
      </trkpt>
      <trkpt lat="50.65255" lon="5.86641">
        <ele>279</ele>
        <time>2025-03-20T22:12:00Z</time>
      </trkpt>
      <trkpt lat="50.65376" lon="5.87372">
        <ele>271</ele>
        <time>2025-03-20T22:13:52Z</time>
      </trkpt>
      <trkpt lat="50.65389" lon="5.87418">
        <ele>270</ele>
        <time>2025-03-20T22:13:59Z</time>
      </trkpt>
      <trkpt lat="50.65427" lon="5.87507">
        <ele>270</ele>
        <time>2025-03-20T22:14:15Z</time>
      </trkpt>
      <trkpt lat="50.65461" lon="5.87556">
        <ele>273</ele>
        <time>2025-03-20T22:14:26Z</time>
      </trkpt>
      <trkpt lat="50.65522" lon="5.87612">
        <ele>275</ele>
        <time>2025-03-20T22:14:42Z</time>
      </trkpt>
      <trkpt lat="50.65562" lon="5.87633">
        <ele>273</ele>
        <time>2025-03-20T22:14:52Z</time>
      </trkpt>
      <trkpt lat="50.656" lon="5.87644">
        <ele>271</ele>
        <time>2025-03-20T22:15:01Z</time>
      </trkpt>
      <trkpt lat="50.65634" lon="5.87647">
        <ele>268</ele>
        <time>2025-03-20T22:15:09Z</time>
      </trkpt>
      <trkpt lat="50.65692" lon="5.87637">
        <ele>267</ele>
        <time>2025-03-20T22:15:23Z</time>
      </trkpt>
      <trkpt lat="50.6574" lon="5.87612">
        <ele>268</ele>
        <time>2025-03-20T22:15:35Z</time>
      </trkpt>
      <trkpt lat="50.66247" lon="5.8729">
        <ele>257</ele>
        <time>2025-03-20T22:17:42Z</time>
      </trkpt>
      <trkpt lat="50.66315" lon="5.87243">
        <ele>256</ele>
        <time>2025-03-20T22:18:00Z</time>
      </trkpt>
      <trkpt lat="50.66358" lon="5.87203">
        <ele>256</ele>
        <time>2025-03-20T22:18:11Z</time>
      </trkpt>
      <trkpt lat="50.66394" lon="5.87163">
        <ele>256</ele>
        <time>2025-03-20T22:18:22Z</time>
      </trkpt>
      <trkpt lat="50.66447" lon="5.87083">
        <ele>255</ele>
        <time>2025-03-20T22:18:39Z</time>
      </trkpt>
      <trkpt lat="50.66489" lon="5.86997">
        <ele>252</ele>
        <time>2025-03-20T22:18:55Z</time>
      </trkpt>
      <trkpt lat="50.66516" lon="5.8692">
        <ele>250</ele>
        <time>2025-03-20T22:19:08Z</time>
      </trkpt>
      <trkpt lat="50.66534" lon="5.8685">
        <ele>249</ele>
        <time>2025-03-20T22:19:19Z</time>
      </trkpt>
      <trkpt lat="50.66548" lon="5.8678">
        <ele>249</ele>
        <time>2025-03-20T22:19:30Z</time>
      </trkpt>
      <trkpt lat="50.66621" lon="5.86254">
        <ele>245</ele>
        <time>2025-03-20T22:20:49Z</time>
      </trkpt>
      <trkpt lat="50.66642" lon="5.86132">
        <ele>243</ele>
        <time>2025-03-20T22:21:08Z</time>
      </trkpt>
      <trkpt lat="50.66664" lon="5.86051">
        <ele>243</ele>
        <time>2025-03-20T22:21:21Z</time>
      </trkpt>
      <trkpt lat="50.66698" lon="5.85966">
        <ele>244</ele>
        <time>2025-03-20T22:21:36Z</time>
      </trkpt>
      <trkpt lat="50.66742" lon="5.85882">
        <ele>243</ele>
        <time>2025-03-20T22:21:52Z</time>
      </trkpt>
      <trkpt lat="50.66765" lon="5.85848">
        <ele>242</ele>
        <time>2025-03-20T22:22:00Z</time>
      </trkpt>
      <trkpt lat="50.66809" lon="5.85792">
        <ele>241</ele>
        <time>2025-03-20T22:22:13Z</time>
      </trkpt>
      <trkpt lat="50.66864" lon="5.8574">
        <ele>237</ele>
        <time>2025-03-20T22:22:28Z</time>
      </trkpt>
      <trkpt lat="50.66916" lon="5.85705">
        <ele>235</ele>
        <time>2025-03-20T22:22:41Z</time>
      </trkpt>
      <trkpt lat="50.66947" lon="5.8569">
        <ele>235</ele>
        <time>2025-03-20T22:22:49Z</time>
      </trkpt>
      <trkpt lat="50.66992" lon="5.85674">
        <ele>234</ele>
        <time>2025-03-20T22:22:59Z</time>
      </trkpt>
      <trkpt lat="50.6702" lon="5.85668">
        <ele>234</ele>
        <time>2025-03-20T22:23:06Z</time>
      </trkpt>
      <trkpt lat="50.67257" lon="5.85636">
        <ele>229</ele>
        <time>2025-03-20T22:24:01Z</time>
      </trkpt>
      <trkpt lat="50.67316" lon="5.85619">
        <ele>226</ele>
        <time>2025-03-20T22:24:15Z</time>
      </trkpt>
      <trkpt lat="50.67342" lon="5.85606">
        <ele>226</ele>
        <time>2025-03-20T22:24:22Z</time>
      </trkpt>
      <trkpt lat="50.67416" lon="5.85545">
        <ele>222</ele>
        <time>2025-03-20T22:24:41Z</time>
      </trkpt>
      <trkpt lat="50.67518" lon="5.8542">
        <ele>220</ele>
        <time>2025-03-20T22:25:12Z</time>
      </trkpt>
      <trkpt lat="50.67547" lon="5.85392">
        <ele>218</ele>
        <time>2025-03-20T22:25:19Z</time>
      </trkpt>
      <trkpt lat="50.67597" lon="5.85358">
        <ele>214</ele>
        <time>2025-03-20T22:25:32Z</time>
      </trkpt>
      <trkpt lat="50.6762" lon="5.85348">
        <ele>213</ele>
        <time>2025-03-20T22:25:38Z</time>
      </trkpt>
      <trkpt lat="50.6766" lon="5.85338">
        <ele>212</ele>
        <time>2025-03-20T22:25:47Z</time>
      </trkpt>
      <trkpt lat="50.67699" lon="5.85337">
        <ele>213</ele>
        <time>2025-03-20T22:25:56Z</time>
      </trkpt>
      <trkpt lat="50.67954" lon="5.85292">
        <ele>214</ele>
        <time>2025-03-20T22:26:56Z</time>
      </trkpt>
      <trkpt lat="50.68041" lon="5.85284">
        <ele>216</ele>
        <time>2025-03-20T22:27:17Z</time>
      </trkpt>
      <trkpt lat="50.68049" lon="5.85279">
        <ele>215</ele>
        <time>2025-03-20T22:27:19Z</time>
      </trkpt>
      <trkpt lat="50.68064" lon="5.85286">
        <ele>216</ele>
        <time>2025-03-20T22:27:22Z</time>
      </trkpt>
      <trkpt lat="50.68071" lon="5.8528">
        <ele>216</ele>
        <time>2025-03-20T22:27:24Z</time>
      </trkpt>
      <trkpt lat="50.68149" lon="5.85266">
        <ele>216</ele>
        <time>2025-03-20T22:27:42Z</time>
      </trkpt>
      <trkpt lat="50.68213" lon="5.8526">
        <ele>215</ele>
        <time>2025-03-20T22:27:57Z</time>
      </trkpt>
      <trkpt lat="50.68248" lon="5.85263">
        <ele>214</ele>
        <time>2025-03-20T22:28:06Z</time>
      </trkpt>
      <trkpt lat="50.68307" lon="5.85276">
        <ele>212</ele>
        <time>2025-03-20T22:28:20Z</time>
      </trkpt>
      <trkpt lat="50.68342" lon="5.85289">
        <ele>210</ele>
        <time>2025-03-20T22:28:28Z</time>
      </trkpt>
      <trkpt lat="50.68786" lon="5.85489">
        <ele>198</ele>
        <time>2025-03-20T22:30:16Z</time>
      </trkpt>
      <trkpt lat="50.68823" lon="5.85501">
        <ele>202</ele>
        <time>2025-03-20T22:30:25Z</time>
      </trkpt>
      <trkpt lat="50.68872" lon="5.85509">
        <ele>205</ele>
        <time>2025-03-20T22:30:36Z</time>
      </trkpt>
      <trkpt lat="50.6908" lon="5.85525">
        <ele>209</ele>
        <time>2025-03-20T22:31:25Z</time>
      </trkpt>
      <trkpt lat="50.69636" lon="5.85607">
        <ele>220</ele>
        <time>2025-03-20T22:33:35Z</time>
      </trkpt>
      <trkpt lat="50.69684" lon="5.85619">
        <ele>222</ele>
        <time>2025-03-20T22:33:46Z</time>
      </trkpt>
      <trkpt lat="50.69724" lon="5.85639">
        <ele>223</ele>
        <time>2025-03-20T22:33:56Z</time>
      </trkpt>
      <trkpt lat="50.6976" lon="5.85663">
        <ele>224</ele>
        <time>2025-03-20T22:34:05Z</time>
      </trkpt>
      <trkpt lat="50.69797" lon="5.85697">
        <ele>226</ele>
        <time>2025-03-20T22:34:15Z</time>
      </trkpt>
      <trkpt lat="50.69831" lon="5.85735">
        <ele>228</ele>
        <time>2025-03-20T22:34:25Z</time>
      </trkpt>
      <trkpt lat="50.69873" lon="5.85807">
        <ele>229</ele>
        <time>2025-03-20T22:34:40Z</time>
      </trkpt>
      <trkpt lat="50.69944" lon="5.85954">
        <ele>233</ele>
        <time>2025-03-20T22:35:07Z</time>
      </trkpt>
      <trkpt lat="50.69986" lon="5.86035">
        <ele>236</ele>
        <time>2025-03-20T22:35:22Z</time>
      </trkpt>
      <trkpt lat="50.70039" lon="5.86109">
        <ele>240</ele>
        <time>2025-03-20T22:35:39Z</time>
      </trkpt>
      <trkpt lat="50.70091" lon="5.86165">
        <ele>241</ele>
        <time>2025-03-20T22:35:54Z</time>
      </trkpt>
      <trkpt lat="50.70121" lon="5.8619">
        <ele>241</ele>
        <time>2025-03-20T22:36:02Z</time>
      </trkpt>
      <trkpt lat="50.70173" lon="5.86224">
        <ele>242</ele>
        <time>2025-03-20T22:36:15Z</time>
      </trkpt>
      <trkpt lat="50.70262" lon="5.86265">
        <ele>240</ele>
        <time>2025-03-20T22:36:36Z</time>
      </trkpt>
      <trkpt lat="50.70275" lon="5.86266">
        <ele>239</ele>
        <time>2025-03-20T22:36:39Z</time>
      </trkpt>
      <trkpt lat="50.70289" lon="5.86278">
        <ele>239</ele>
        <time>2025-03-20T22:36:43Z</time>
      </trkpt>
      <trkpt lat="50.70616" lon="5.864">
        <ele>241</ele>
        <time>2025-03-20T22:38:02Z</time>
      </trkpt>
      <trkpt lat="50.7068" lon="5.8643">
        <ele>244</ele>
        <time>2025-03-20T22:38:17Z</time>
      </trkpt>
      <trkpt lat="50.70717" lon="5.86458">
        <ele>245</ele>
        <time>2025-03-20T22:38:27Z</time>
      </trkpt>
      <trkpt lat="50.70746" lon="5.86496">
        <ele>247</ele>
        <time>2025-03-20T22:38:36Z</time>
      </trkpt>
      <trkpt lat="50.70782" lon="5.86549">
        <ele>245</ele>
        <time>2025-03-20T22:38:47Z</time>
      </trkpt>
      <trkpt lat="50.70811" lon="5.86608">
        <ele>242</ele>
        <time>2025-03-20T22:38:58Z</time>
      </trkpt>
      <trkpt lat="50.70841" lon="5.86703">
        <ele>240</ele>
        <time>2025-03-20T22:39:14Z</time>
      </trkpt>
      <trkpt lat="50.70848" lon="5.86789">
        <ele>240</ele>
        <time>2025-03-20T22:39:27Z</time>
      </trkpt>
      <trkpt lat="50.70849" lon="5.8684">
        <ele>240</ele>
        <time>2025-03-20T22:39:34Z</time>
      </trkpt>
      <trkpt lat="50.70842" lon="5.86927">
        <ele>242</ele>
        <time>2025-03-20T22:39:47Z</time>
      </trkpt>
      <trkpt lat="50.70794" lon="5.87274">
        <ele>250</ele>
        <time>2025-03-20T22:40:40Z</time>
      </trkpt>
      <trkpt lat="50.70786" lon="5.87392">
        <ele>254</ele>
        <time>2025-03-20T22:40:57Z</time>
      </trkpt>
      <trkpt lat="50.70786" lon="5.87572">
        <ele>257</ele>
        <time>2025-03-20T22:41:24Z</time>
      </trkpt>
      <trkpt lat="50.70791" lon="5.87649">
        <ele>258</ele>
        <time>2025-03-20T22:41:35Z</time>
      </trkpt>
      <trkpt lat="50.70807" lon="5.87793">
        <ele>261</ele>
        <time>2025-03-20T22:41:57Z</time>
      </trkpt>
      <trkpt lat="50.70829" lon="5.87918">
        <ele>263</ele>
        <time>2025-03-20T22:42:16Z</time>
      </trkpt>
      <trkpt lat="50.70865" lon="5.88045">
        <ele>266</ele>
        <time>2025-03-20T22:42:37Z</time>
      </trkpt>
      <trkpt lat="50.70914" lon="5.88166">
        <ele>272</ele>
        <time>2025-03-20T22:42:58Z</time>
      </trkpt>
      <trkpt lat="50.70942" lon="5.88219">
        <ele>274</ele>
        <time>2025-03-20T22:43:08Z</time>
      </trkpt>
      <trkpt lat="50.70982" lon="5.88278">
        <ele>278</ele>
        <time>2025-03-20T22:43:21Z</time>
      </trkpt>
      <trkpt lat="50.71081" lon="5.8839">
        <ele>276</ele>
        <time>2025-03-20T22:43:49Z</time>
      </trkpt>
      <trkpt lat="50.71137" lon="5.88443">
        <ele>272</ele>
        <time>2025-03-20T22:44:05Z</time>
      </trkpt>
      <trkpt lat="50.71373" lon="5.88687">
        <ele>263</ele>
        <time>2025-03-20T22:45:10Z</time>
      </trkpt>
      <trkpt lat="50.71494" lon="5.88843">
        <ele>262</ele>
        <time>2025-03-20T22:45:47Z</time>
      </trkpt>
      <trkpt lat="50.71587" lon="5.89002">
        <ele>256</ele>
        <time>2025-03-20T22:46:19Z</time>
      </trkpt>
      <trkpt lat="50.71732" lon="5.89269">
        <ele>255</ele>
        <time>2025-03-20T22:47:11Z</time>
      </trkpt>
      <trkpt lat="50.71769" lon="5.89333">
        <ele>249</ele>
        <time>2025-03-20T22:47:24Z</time>
      </trkpt>
      <trkpt lat="50.71816" lon="5.89394">
        <ele>244</ele>
        <time>2025-03-20T22:47:38Z</time>
      </trkpt>
      <trkpt lat="50.71877" lon="5.89454">
        <ele>243</ele>
        <time>2025-03-20T22:47:55Z</time>
      </trkpt>
      <trkpt lat="50.72006" lon="5.89538">
        <ele>240</ele>
        <time>2025-03-20T22:48:27Z</time>
      </trkpt>
      <trkpt lat="50.72102" lon="5.89588">
        <ele>237</ele>
        <time>2025-03-20T22:48:51Z</time>
      </trkpt>
      <trkpt lat="50.72133" lon="5.89618">
        <ele>236</ele>
        <time>2025-03-20T22:48:59Z</time>
      </trkpt>
      <trkpt lat="50.72165" lon="5.8966">
        <ele>236</ele>
        <time>2025-03-20T22:49:09Z</time>
      </trkpt>
      <trkpt lat="50.72206" lon="5.89731">
        <ele>235</ele>
        <time>2025-03-20T22:49:23Z</time>
      </trkpt>
      <trkpt lat="50.72228" lon="5.89794">
        <ele>236</ele>
        <time>2025-03-20T22:49:34Z</time>
      </trkpt>
      <trkpt lat="50.72247" lon="5.89899">
        <ele>238</ele>
        <time>2025-03-20T22:49:50Z</time>
      </trkpt>
      <trkpt lat="50.72251" lon="5.89964">
        <ele>237</ele>
        <time>2025-03-20T22:50:00Z</time>
      </trkpt>
      <trkpt lat="50.7225" lon="5.90009">
        <ele>237</ele>
        <time>2025-03-20T22:50:06Z</time>
      </trkpt>
      <trkpt lat="50.72241" lon="5.90082">
        <ele>233</ele>
        <time>2025-03-20T22:50:17Z</time>
      </trkpt>
      <trkpt lat="50.72216" lon="5.90181">
        <ele>229</ele>
        <time>2025-03-20T22:50:33Z</time>
      </trkpt>
      <trkpt lat="50.72196" lon="5.9023">
        <ele>228</ele>
        <time>2025-03-20T22:50:42Z</time>
      </trkpt>
      <trkpt lat="50.72048" lon="5.90479">
        <ele>219</ele>
        <time>2025-03-20T22:51:32Z</time>
      </trkpt>
      <trkpt lat="50.71907" lon="5.90724">
        <ele>224</ele>
        <time>2025-03-20T22:52:21Z</time>
      </trkpt>
      <trkpt lat="50.7189" lon="5.90768">
        <ele>222</ele>
        <time>2025-03-20T22:52:29Z</time>
      </trkpt>
      <trkpt lat="50.71872" lon="5.90825">
        <ele>221</ele>
        <time>2025-03-20T22:52:38Z</time>
      </trkpt>
      <trkpt lat="50.71863" lon="5.9087">
        <ele>219</ele>
        <time>2025-03-20T22:52:45Z</time>
      </trkpt>
      <trkpt lat="50.71854" lon="5.90953">
        <ele>217</ele>
        <time>2025-03-20T22:52:58Z</time>
      </trkpt>
      <trkpt lat="50.71857" lon="5.91062">
        <ele>216</ele>
        <time>2025-03-20T22:53:14Z</time>
      </trkpt>
      <trkpt lat="50.71865" lon="5.9111">
        <ele>214</ele>
        <time>2025-03-20T22:53:21Z</time>
      </trkpt>
      <trkpt lat="50.71882" lon="5.9117">
        <ele>212</ele>
        <time>2025-03-20T22:53:31Z</time>
      </trkpt>
      <trkpt lat="50.71918" lon="5.91259">
        <ele>210</ele>
        <time>2025-03-20T22:53:47Z</time>
      </trkpt>
      <trkpt lat="50.71949" lon="5.91308">
        <ele>210</ele>
        <time>2025-03-20T22:53:57Z</time>
      </trkpt>
      <trkpt lat="50.72" lon="5.91362">
        <ele>211</ele>
        <time>2025-03-20T22:54:11Z</time>
      </trkpt>
      <trkpt lat="50.72032" lon="5.91384">
        <ele>211</ele>
        <time>2025-03-20T22:54:19Z</time>
      </trkpt>
      <trkpt lat="50.7211" lon="5.91407">
        <ele>211</ele>
        <time>2025-03-20T22:54:38Z</time>
      </trkpt>
      <trkpt lat="50.72156" lon="5.91404">
        <ele>211</ele>
        <time>2025-03-20T22:54:49Z</time>
      </trkpt>
      <trkpt lat="50.72197" lon="5.91389">
        <ele>213</ele>
        <time>2025-03-20T22:54:58Z</time>
      </trkpt>
      <trkpt lat="50.72197" lon="5.91362">
        <ele>211</ele>
        <time>2025-03-20T22:55:02Z</time>
      </trkpt>
      <trkpt lat="50.72563" lon="5.91108">
        <ele>213</ele>
        <time>2025-03-20T22:56:36Z</time>
      </trkpt>
      <trkpt lat="50.72608" lon="5.91083">
        <ele>212</ele>
        <time>2025-03-20T22:56:47Z</time>
      </trkpt>
      <trkpt lat="50.7266" lon="5.91062">
        <ele>213</ele>
        <time>2025-03-20T22:56:59Z</time>
      </trkpt>
      <trkpt lat="50.72729" lon="5.91059">
        <ele>212</ele>
        <time>2025-03-20T22:57:16Z</time>
      </trkpt>
      <trkpt lat="50.72756" lon="5.91063">
        <ele>212</ele>
        <time>2025-03-20T22:57:22Z</time>
      </trkpt>
      <trkpt lat="50.72783" lon="5.91075">
        <ele>213</ele>
        <time>2025-03-20T22:57:28Z</time>
      </trkpt>
      <trkpt lat="50.72849" lon="5.91119">
        <ele>217</ele>
        <time>2025-03-20T22:57:45Z</time>
      </trkpt>
      <trkpt lat="50.72875" lon="5.91148">
        <ele>223</ele>
        <time>2025-03-20T22:57:54Z</time>
      </trkpt>
      <trkpt lat="50.72904" lon="5.91196">
        <ele>225.1</ele>
        <time>2025-03-20T22:58:07Z</time>
      </trkpt>
      <trkpt lat="50.72948" lon="5.91287">
        <ele>227.4</ele>
        <time>2025-03-20T22:58:24Z</time>
      </trkpt>
      <trkpt lat="50.72977" lon="5.9138">
        <ele>226</ele>
        <time>2025-03-20T22:58:37Z</time>
      </trkpt>
      <trkpt lat="50.72996" lon="5.91489">
        <ele>222.8</ele>
      </trkpt>
      <trkpt lat="50.72992" lon="5.91519">
        <ele>222.3</ele>
      </trkpt>
      <trkpt lat="50.72993" lon="5.91569">
        <ele>224</ele>
      </trkpt>
      <trkpt lat="50.7298" lon="5.91657">
        <ele>222.3</ele>
      </trkpt>
      <trkpt lat="50.72974" lon="5.91617">
        <ele>223.7</ele>
      </trkpt>
      <trkpt lat="50.7297" lon="5.91641">
        <ele>223.1</ele>
      </trkpt>
      <trkpt lat="50.72954" lon="5.91699">
        <ele>219.9</ele>
      </trkpt>
      <trkpt lat="50.72953" lon="5.91711">
        <ele>218.8</ele>
      </trkpt>
      <trkpt lat="50.72961" lon="5.91721">
        <ele>217.6</ele>
      </trkpt>
      <trkpt lat="50.73017" lon="5.91759">
        <ele>215.3</ele>
      </trkpt>
      <trkpt lat="50.73042" lon="5.91749">
        <ele>215.5</ele>
      </trkpt>
      <trkpt lat="50.73049" lon="5.91739">
        <ele>215.6</ele>
      </trkpt>
      <trkpt lat="50.73047" lon="5.91721">
        <ele>216.3</ele>
      </trkpt>
      <trkpt lat="50.73035" lon="5.91667">
        <ele>217.5</ele>
      </trkpt>
      <trkpt lat="50.73021" lon="5.91543">
        <ele>221.9</ele>
      </trkpt>
      <trkpt lat="50.73003" lon="5.91404">
        <ele>229.8</ele>
      </trkpt>
      <trkpt lat="50.72965" lon="5.91229">
        <ele>235.4</ele>
      </trkpt>
      <trkpt lat="50.73" lon="5.91211">
        <ele>237.4</ele>
      </trkpt>
      <trkpt lat="50.73044" lon="5.9121">
        <ele>238.4</ele>
      </trkpt>
      <trkpt lat="50.73094" lon="5.91221">
        <ele>240.3</ele>
      </trkpt>
      <trkpt lat="50.73145" lon="5.91208">
        <ele>247</ele>
      </trkpt>
      <trkpt lat="50.73437" lon="5.91169">
        <ele>276</ele>
      </trkpt>
      <trkpt lat="50.73484" lon="5.91147">
        <ele>274.9</ele>
      </trkpt>
      <trkpt lat="50.73629" lon="5.91034">
        <ele>271.8</ele>
      </trkpt>
      <trkpt lat="50.73692" lon="5.90999">
        <ele>271.1</ele>
      </trkpt>
      <trkpt lat="50.73832" lon="5.90933">
        <ele>270.5</ele>
      </trkpt>
      <trkpt lat="50.73938" lon="5.90891">
        <ele>271</ele>
      </trkpt>
      <trkpt lat="50.73982" lon="5.90935">
        <ele>272</ele>
      </trkpt>
      <trkpt lat="50.74026" lon="5.90987">
        <ele>272</ele>
      </trkpt>
      <trkpt lat="50.7408" lon="5.9113">
        <ele>270.6</ele>
      </trkpt>
      <trkpt lat="50.74123" lon="5.91223">
        <ele>270.1</ele>
      </trkpt>
      <trkpt lat="50.74181" lon="5.91333">
        <ele>268</ele>
      </trkpt>
      <trkpt lat="50.742" lon="5.91415">
        <ele>268</ele>
      </trkpt>
      <trkpt lat="50.74239" lon="5.91607">
        <ele>266</ele>
      </trkpt>
      <trkpt lat="50.74275" lon="5.91792">
        <ele>263.8</ele>
      </trkpt>
      <trkpt lat="50.74311" lon="5.92002">
        <ele>257.3</ele>
      </trkpt>
      <trkpt lat="50.74337" lon="5.9217">
        <ele>245</ele>
      </trkpt>
      <trkpt lat="50.74337" lon="5.92266">
        <ele>236.8</ele>
      </trkpt>
      <trkpt lat="50.74335" lon="5.9237">
        <ele>225.6</ele>
      </trkpt>
      <trkpt lat="50.74339" lon="5.92386">
        <ele>224.6</ele>
      </trkpt>
      <trkpt lat="50.74367" lon="5.92436">
        <ele>223.1</ele>
      </trkpt>
      <trkpt lat="50.74391" lon="5.92476">
        <ele>220.9</ele>
      </trkpt>
      <trkpt lat="50.74437" lon="5.92571">
        <ele>216.6</ele>
      </trkpt>
      <trkpt lat="50.74454" lon="5.92614">
        <ele>214.8</ele>
      </trkpt>
      <trkpt lat="50.74477" lon="5.92644">
        <ele>212.5</ele>
      </trkpt>
      <trkpt lat="50.74487" lon="5.92652">
        <ele>211.9</ele>
      </trkpt>
      <trkpt lat="50.74523" lon="5.92689">
        <ele>209.6</ele>
      </trkpt>
      <trkpt lat="50.7453" lon="5.92692">
        <ele>209.1</ele>
      </trkpt>
      <trkpt lat="50.74552" lon="5.92695">
        <ele>208.1</ele>
      </trkpt>
      <trkpt lat="50.74577" lon="5.92692">
        <ele>208</ele>
      </trkpt>
      <trkpt lat="50.74599" lon="5.92705">
        <ele>206.1</ele>
      </trkpt>
      <trkpt lat="50.74621" lon="5.92718">
        <ele>203.5</ele>
      </trkpt>
      <trkpt lat="50.74628" lon="5.92729">
        <ele>202.7</ele>
      </trkpt>
      <trkpt lat="50.74663" lon="5.92746">
        <ele>198.5</ele>
      </trkpt>
      <trkpt lat="50.74697" lon="5.9276">
        <ele>195.3</ele>
      </trkpt>
      <trkpt lat="50.74721" lon="5.92802">
        <ele>193.1</ele>
      </trkpt>
      <trkpt lat="50.74742" lon="5.92819">
        <ele>191.9</ele>
      </trkpt>
      <trkpt lat="50.74752" lon="5.92824">
        <ele>191.4</ele>
      </trkpt>
      <trkpt lat="50.74771" lon="5.92837">
        <ele>189.8</ele>
      </trkpt>
      <trkpt lat="50.74799" lon="5.92871">
        <ele>186.9</ele>
      </trkpt>
      <trkpt lat="50.74822" lon="5.92907">
        <ele>183.8</ele>
      </trkpt>
      <trkpt lat="50.74834" lon="5.92938">
        <ele>180.7</ele>
      </trkpt>
      <trkpt lat="50.74842" lon="5.92964">
        <ele>179.1</ele>
      </trkpt>
      <trkpt lat="50.74851" lon="5.92957">
        <ele>179.3</ele>
      </trkpt>
      <trkpt lat="50.74878" lon="5.92933">
        <ele>180</ele>
      </trkpt>
      <trkpt lat="50.74909" lon="5.92897">
        <ele>179.5</ele>
      </trkpt>
      <trkpt lat="50.74946" lon="5.92841">
        <ele>178.5</ele>
      </trkpt>
      <trkpt lat="50.74952" lon="5.92836">
        <ele>177.8</ele>
      </trkpt>
      <trkpt lat="50.7496" lon="5.92845">
        <ele>177.1</ele>
      </trkpt>
      <trkpt lat="50.75019" lon="5.92931">
        <ele>171.9</ele>
      </trkpt>
      <trkpt lat="50.75032" lon="5.9294">
        <ele>170.7</ele>
      </trkpt>
      <trkpt lat="50.75096" lon="5.92937">
        <ele>163.1</ele>
      </trkpt>
      <trkpt lat="50.75114" lon="5.92936">
        <ele>160.6</ele>
      </trkpt>
      <trkpt lat="50.75172" lon="5.9291">
        <ele>153.8</ele>
      </trkpt>
      <trkpt lat="50.75177" lon="5.92962">
        <ele>155.9</ele>
      </trkpt>
      <trkpt lat="50.75171" lon="5.93044">
        <ele>159.4</ele>
      </trkpt>
      <trkpt lat="50.75163" lon="5.93124">
        <ele>162.9</ele>
      </trkpt>
      <trkpt lat="50.75148" lon="5.93191">
        <ele>163.8</ele>
      </trkpt>
      <trkpt lat="50.75077" lon="5.93353">
        <ele>158.4</ele>
      </trkpt>
      <trkpt lat="50.75074" lon="5.9337">
        <ele>157.9</ele>
      </trkpt>
      <trkpt lat="50.75111" lon="5.93366">
        <ele>157.8</ele>
      </trkpt>
      <trkpt lat="50.75117" lon="5.93373">
        <ele>157</ele>
      </trkpt>
      <trkpt lat="50.75146" lon="5.93444">
        <ele>150.3</ele>
      </trkpt>
      <trkpt lat="50.75167" lon="5.93436">
        <ele>148.6</ele>
      </trkpt>
      <trkpt lat="50.75209" lon="5.93439">
        <ele>147.1</ele>
      </trkpt>
      <trkpt lat="50.75225" lon="5.93444">
        <ele>146.8</ele>
      </trkpt>
      <trkpt lat="50.75252" lon="5.93444">
        <ele>145.1</ele>
      </trkpt>
      <trkpt lat="50.75311" lon="5.93467">
        <ele>141.7</ele>
      </trkpt>
      <trkpt lat="50.75323" lon="5.93468">
        <ele>141.1</ele>
      </trkpt>
      <trkpt lat="50.75343" lon="5.93466">
        <ele>141.4</ele>
      </trkpt>
      <trkpt lat="50.75352" lon="5.93473">
        <ele>140.6</ele>
      </trkpt>
      <trkpt lat="50.7536" lon="5.93491">
        <ele>138.2</ele>
      </trkpt>
      <trkpt lat="50.75419" lon="5.93551">
        <ele>132.8</ele>
      </trkpt>
      <trkpt lat="50.75431" lon="5.93572">
        <ele>131.6</ele>
      </trkpt>
      <trkpt lat="50.75452" lon="5.93599">
        <ele>130</ele>
      </trkpt>
      <trkpt lat="50.75478" lon="5.93631">
        <ele>128.2</ele>
      </trkpt>
      <trkpt lat="50.75517" lon="5.93649">
        <ele>126.8</ele>
      </trkpt>
      <trkpt lat="50.75534" lon="5.93675">
        <ele>125</ele>
      </trkpt>
      <trkpt lat="50.75555" lon="5.93701">
        <ele>125</ele>
      </trkpt>
      <trkpt lat="50.75571" lon="5.93709">
        <ele>125.3</ele>
      </trkpt>
      <trkpt lat="50.75596" lon="5.9373">
        <ele>124.8</ele>
      </trkpt>
      <trkpt lat="50.756" lon="5.93729">
        <ele>124.6</ele>
      </trkpt>
      <trkpt lat="50.75607" lon="5.9372">
        <ele>124.4</ele>
      </trkpt>
      <trkpt lat="50.75621" lon="5.93699">
        <ele>124.9</ele>
      </trkpt>
      <trkpt lat="50.75631" lon="5.93698">
        <ele>125</ele>
      </trkpt>
      <trkpt lat="50.75631" lon="5.93724">
        <ele>124.7</ele>
      </trkpt>
      <trkpt lat="50.75637" lon="5.93751">
        <ele>124.9</ele>
      </trkpt>
      <trkpt lat="50.75646" lon="5.93807">
        <ele>125.3</ele>
        <time>2025-03-20T23:26:27Z</time>
      </trkpt>
    </trkseg>
  </trk>
</gpx>